Regional Weather Roundup
Issued by NWS

Home | Current Version | Previous Version | Graphics & Text | Print | Product List | Glossary On
Versions: 1 2 3 4 5 6 7 8 9 10 11 12 13 14 15 16 17 18 19 20 21 22 23 24 25 26 27 28 29 30 31 32 33 34 35 36 37 38 39 40 41 42 43 44 45 46 47 48 49 50
000
ASUS45 KBOI 011410
RWRID

IDAHO REGIONAL WEATHER ROUNDUP
NATIONAL WEATHER SERVICE BOISE ID
700 AM MST WED MAR 01 2017

NOTE: "FAIR" INDICATES FEW OR NO CLOUDS BELOW 12000 FEET
WITH NO SIGNIFICANT WEATHER AND/OR OBSTRUCTIONS TO VISIBILITY

IDZ012-014-011500-
SOUTHWEST IDAHO


CITY           SKY/WX    TMP DP  RH WIND       PRES   REMARKS
BOISE          PTCLDY    30  22  72 SE9       30.37R WCI  22
CALDWELL       PTCLDY    28  25  88 E3        30.38R
MOUNTAIN HOME  MOCLDY    29  29 100 E3        30.37R
$$

IDZ016-017-011500-
SOUTHCENTRAL IDAHO


CITY           SKY/WX    TMP DP  RH WIND       PRES   REMARKS
BURLEY         CLOUDY    32  21  64 MISG      30.33R
JEROME         CLOUDY    29  22  75 SW7       30.35R WCI  22
TWIN FALLS     CLOUDY    30  20  66 SW14      30.34R WCI  19
$$

IDZ019>023-011500-
SOUTHEAST IDAHO


CITY           SKY/WX    TMP DP  RH WIND       PRES   REMARKS
IDAHO FALLS    CLOUDY    12  11  95 CALM      30.30R
POCATELLO      CLOUDY    17  15  92 CALM      30.32S
REXBURG        CLOUDY    16  14  92 SW5       30.29R WCI   9
$$

IDZ006-010-011-018-031-032-011500-
CENTRAL IDAHO MOUNTAINS


CITY           SKY/WX    TMP DP  RH WIND       PRES   REMARKS
MCCALL         CLOUDY    22  17  81 CALM      30.22R
HAILEY         MOCLDY    16   9  73 W8        30.29R WCI   5
STANLEY          N/A     18  15  88 SE7       30.21S WCI   9
SALMON         CLOUDY    30  12  47 S12       30.19S WCI  21
CHALLIS        CLOUDY    25  16  68 CALM      30.20R
$$

IDZ002-004-006-007-026-011500-
NORTHERN IDAHO


CITY           SKY/WX    TMP DP  RH WIND       PRES   REMARKS
LEWISTON       CLOUDY    34  28  79 CALM      30.24R
LOWELL           N/A     30  28  92 CALM      30.32S
COEUR D`ALENE  FLURRIES  33  28  81 N3        30.14R
MULLAN PASS    LGT SNOW  19  18  95 MISG      29.96S FOG
$$



USA.gov is the U.S. government's official web portal to all federal, state and local government web resources and services.